Showing default

OAO 1, 2142

Orbit data source: Space-Track

OAO 1, 2142 is a payload satellite owned by GSFC (US) in LEO that was launched on Fri, 08 Apr 1966 UTC via an ATLAS SLV-3 AGENA D launch vehicle from the Air Force Eastern Test Range (AFETR). Payload-class satellites include a variety of spacecraft equipped with specific instruments for various scientific and technological missions. These include communications satellites like Starlink; space stations such as the ISS; scientific satellites like the Hubble; Earth observation satellites from companies like Planet Labs, Umbra, and HawkEye 360; GPS; miniature CubeSats for education and research; and military/defense satellites.

Loading next visibility...
Identifier
2142, 1966-031A
Orbit
LEO
Country
Flag of USUS
Related business
Manufacturer
Grummann
Mission
Spacecraft
Bus & Motor
OAO, Unknown motor
Mass
1,769 kg wet, 1,769 kg dry
Launch date (UTC)
1966-04-08 (60 years ago)
Launch vehicle
ATLAS SLV-3 AGENA D
Launch site
Air Force Eastern Test Range (AFETR)
Object type
Payload
Rocket body
Debris
Shape & HBR
Unknown
Radar Cross Section
Large (>1 m²)

Expand to show TLE details & history
Last TLE update: 20 hours ago

TLE from 20 hours ago
0 OAO 1
1 02142U 66031A   25301.63142502  .00000203  00000-0  77662-4 0  9996
2 02142  35.0443 156.0392 0007641 278.4419  81.5402 14.34616968117815
Epoch: 2025-10-28T15:09Z
TLE epoch observation values (Epoch: 2025-10-28T15:09:15.121Z)
Latitude
-0.00004°
Longitude
-108.49001°
Altitude
774.494 km
Speed
7.469 km/s
True Right ascension
10h 24m 09s
True Declination
0° 00' 00"
Sunlit
Object was in daylight at epoch
Visualization orbit readout
Latitude
Unknown
Longitude
Unknown
Altitude
Unknown
Speed
Unknown
Apparent Right ascension
Unknown
Apparent Declination
Unknown
Sunlit
N/A
Visualization observer readout
Local Sidereal Time
07:10:25
Azimuth
Unknown
Elevation
Unknown
Doppler factor
Unknown
Orbital elements
Apogee altitude
784.925 km
Perigee altitude
773.987 km
Semi-major axis
7,157.593 km
Eccentricity
0.00076
Inclination
35.0443°
RAAN
156.0392°
Arg. of periapsis
278.4419°
True anomaly
81.62682°
Mean anomaly
81.5402°
Eccentric anomaly
81.58351°
Mean motion
3.5842 °/min
Orbital period
100.44 mins
BSTAR
0.000077662
Loading maneuver chart data...
Computing Atmospheric mass density...
Loading historical data...
Loading historical data...
Loading historical data...
Loading historical data...
Loading historical data...
Loading historical data...
Loading historical data...
Other satellites on launch #31 in the year 1966 (1966-04-08 UTC)

Documentation

Showing up to 5 results
|